Location: Goettingen
(51.5300°N, 9.9433°E)
Time: 10:09:12
(UTC+02:00)

ISS - Pass Details

Date: 14 May 2025
Orbit: 416 x 419 km, 51.6° (Epoch: 18 May)

Event Time Altitude Azimuth Distance (km) Brightness Sun altitude
Rises 23:00:42 0° 267° (W) 2,359 0.5 -13.6°
Reaches altitude 10° 23:02:47 10° 268° (W) 1,495 -0.5 -13.8°
Maximum altitude 23:06:09 86° 358° (N) 423 -3.8 -14.1°
Enters shadow 23:09:27 10° 87° (E) 1,468 -1.3 -14.3°
